Flag for Brazil Weather past 2 weeks in Caruaru, Pernambuco, Brazil

Now
86 °F

Passing clouds.


Feels Like: 92 °F
Forecast: 70 / 85 °F
Wind: 9 mph from Southeast

Location: Recife Aeroporto

Current Time: Jan 25, 2015 at 9:43:42 AM

Latest Report: Jan 25, 2015 at 9:00 AM


Visibility: N/A

Pressure: 29.95 "Hg

Humidity: 62%

Dew point: 72 °F

Location of CaruaruLocation

Historic Weather in Caruaru — Graph

°F

Caruaru temperature yesterday

Maximum temperature yesterday: 86 °F (at 12:00 PM)
Minimum temperature yesterday: 77 °F (at 7:00 AM)
Average temperature yesterday: 81 °F

Past Weeks' High & Low Weather Summary

 TemperatureHumidityPressure
High88 °F (Jan 21, 1:00 PM)94% (Jan 11, 6:00 AM)30.04 "Hg (Jan 11, 6:00 AM)
Low75 °F (Jan 11, 6:00 AM)55% (Jan 23, 12:00 PM)29.86 "Hg (Jan 20, 2:00 PM)
Average82 °F74%29.94 "Hg
* Reported Jan 10 8:00 AM — Jan 25 8:00 AM, Caruaru, Weather by CustomWeather, © 2014

Note: Actual official high and low records may vary slightly from our data, if they occured in-between our weather recording intervals... More about our weather records

Advertising

Caruaru weather history for previous 24 hours

 ConditionsComfort  
Time TempWeatherWind HumidityBarometerVisibility
8:00 AM
Jan 25
82 °FScattered clouds.9 mph74%29.95 "HgN/A
7:00 AM81 °FScattered clouds.9 mph79%29.92 "HgN/A
6:00 AM79 °FPassing clouds.9 mph84%29.92 "HgN/A
5:00 AM79 °FPassing clouds.8 mph79%29.92 "HgN/A
4:00 AM79 °FPassing clouds.7 mph79%29.89 "HgN/A
3:00 AM79 °FPassing clouds.8 mph84%29.89 "HgN/A
2:00 AM81 °FPassing clouds.10 mph79%29.89 "HgN/A
1:00 AM81 °FPassing clouds.9 mph79%29.92 "HgN/A
12:00 AM81 °FPassing clouds.7 mph79%29.92 "HgN/A
11:00 PM
Jan 24
81 °FPassing clouds.9 mph79%29.95 "HgN/A
10:00 PM81 °FPassing clouds.8 mph79%29.95 "HgN/A
9:00 PM81 °FPassing clouds.9 mph79%29.95 "HgN/A
8:00 PM81 °FPassing clouds.7 mph79%29.95 "HgN/A
7:00 PM81 °FPassing clouds.6 mph79%29.92 "HgN/A
6:00 PM81 °FScattered clouds.8 mph79%29.92 "HgN/A
5:00 PM82 °FScattered clouds.9 mph74%29.89 "HgN/A
4:00 PM84 °FScattered clouds.8 mph70%29.89 "HgN/A
3:00 PM84 °FScattered clouds.10 mph70%29.89 "HgN/A
2:00 PM84 °FScattered clouds.10 mph70%29.89 "HgN/A
1:00 PM84 °FScattered clouds.9 mph74%29.89 "HgN/A
12:00 PM86 °FScattered clouds.10 mph70%29.92 "HgN/A
11:00 AM84 °FBroken clouds.7 mph74%29.95 "HgN/A
10:00 AM82 °FBroken clouds.8 mph74%29.95 "HgN/A
9:00 AM77 °FBroken clouds.5 mph94%29.95 "HgN/A
Weather by CustomWeather, © 2014

See weather overviewHow to use our weather pages